STARLINK-11157 [DTC] (60122 NORAD) Tracking and Keplerian Element Data

This shows tracking and keplerian element data for the satellite.

Feedback or suggestion? Click here.




ElementValue
Catalog60122
NameSTARLINK-11157 [DTC]
Epoch Orbit1745
Epoch Day286.88210613
Epoch Year2024
RAAN229.028
Inclination53.1575
Eccentricity0.0001139
Argument of Perigee115.403
Mean Anonmoly244.7105
Mean Motion15.69812079
Decay Rate0.00050826
L11 60122U 24118K 24286.88210613 .00050826 00000+0 42003-3 0 9990
L22 60122 53.1575 229.0280 0001139 115.4030 244.7105 15.69812079 17458



Live tracking and technical data element details for STARLINK-11157 [DTC] (NORAD 60122). STARLINK-11157 [DTC] can be tracked NOW for your location showing map with azimuth and elevation plus other details from your city location.







IsCatalogInMostPopularTable: catalog: 60122, numindb: 7
Update: records affected: 1



GetName: 60122 STARLINK-11157 [DTC]

Hit Count: updated at: Thu, 23 Jan 2025 15:06:21 GMT